Location: Red Shale Campground
(45.5700°N, 106.1600°W)
Time: 20:17:09
(UTC-06:00)

Daily predictions for brighter satellites

Satellite Brightness Start Highest point End
(mag) Time Altitude Azimuth Time Altitude Azimuth Time Altitude Azimuth
ERS-1 Rocket 4.1 20:10:14 10° ESE 20:14:18 25° ENE 20:18:23 10° N
Tiangong 1 2.1 20:15:38 10° W 20:18:32 36° SSW 20:21:24 10° SE
Meteor 1-12 Rocket 4.3 20:14:10 10° S 20:19:50 63° E 20:25:40 10° NNE
Cosmos 2150 Rocket 4.0 20:19:39 10° NNW 20:24:49 70° ENE 20:29:59 10° SSE
Cosmos 1743 4.0 20:22:54 10° SE 20:25:55 21° E 20:28:56 10° NE
Resurs 1-3 4.2 20:21:52 10° S 20:26:12 61° W 20:30:33 10° NNW
Cosmos 1939 Rocket 4.3 20:23:34 10° ESE 20:26:48 22° ENE 20:30:04 10° NNE
Cosmos 1697 Rocket 2.8 20:24:02 10° S 20:29:29 52° ESE 20:34:58 10° NE
Cosmos 2123 Rocket 4.4 20:26:18 10° NNW 20:32:26 68° W 20:38:33 10° S
Cosmos 1066 Rocket 4.3 20:29:13 10° N 20:34:52 62° ENE 20:40:37 10° SSE
Cosmos 1898 Rocket 3.5 20:29:36 10° NNW 20:34:56 88° ENE 20:40:12 10° SSE
Cosmos 1459 Rocket 4.3 20:33:21 10° SSE 20:38:59 42° E 20:44:42 10° NNE
SL-16 R/B 3.6 20:41:43 12° SE 20:44:05 16° E 20:47:22 10° ENE
USA 215 4.5 20:38:51 10° ENE 20:44:35 34° N 20:50:20 10° NW
Cosmos 468 Rocket 3.9 20:41:21 10° S 20:46:25 70° ESE 20:51:34 10° NNE
RESURS DK-1 2.5 20:45:49 10° NNW 20:49:58 76° WSW 20:54:06 10° SSE
Cosmos 841 Rocket 4.1 20:46:10 10° SSE 20:50:50 33° E 20:55:28 10° NE
Cosmos 1980 Rocket 2.3 20:48:32 10° S 20:53:59 51° ESE 20:59:30 10° NE
H-2A R/B 3.4 20:51:02 10° S 20:54:52 58° W 20:58:48 10° NNW
Resurs 01 Rocket 4.0 20:52:10 10° SSW 20:55:48 24° W 20:59:27 10° NW
Cosmos 1814 Rocket 4.0 20:55:07 10° SSW 21:00:26 78° ESE 21:05:45 10° NNE
Cosmos 1842 4.2 20:58:21 10° NNE 21:01:49 29° ENE 21:03:13 23° ESE
FENGYUN 3A 4.5 20:58:00 10° S 21:03:12 52° W 21:08:27 10° NNW
Cosmos 1656 4.1 20:58:46 10° SW 21:04:20 65° WNW 21:09:52 10° NNE
Cosmos 1726 Rocket 4.1 21:01:45 15° SSE 21:05:01 38° E 21:09:07 10° NNE
Cosmos 1666 3.7 21:04:42 25° ESE 21:05:31 27° E 21:08:46 10° NNE
YAOGAN 6 4.1 21:05:28 20° E 21:06:14 21° ENE 21:09:07 10° NNE
Cosmos 2263 Rocket 3.3 21:10:55 10° N 21:15:46 29° NE 21:18:17 21° E
Iridium 4 Rocket 4.1 21:11:31 10° NNW 21:16:20 51° W 21:20:42 10° SSW
Cosmos 1500 4.1 21:13:06 10° SSW 21:16:46 50° WNW 21:20:28 10° N
Lacrosse 5 3.1 21:12:44 10° WNW 21:17:18 35° SW 21:21:09 14° S
Cosmos 1825 Rocket 3.5 21:13:24 10° N 21:17:51 88° W 21:21:22 16° S
Cosmos 1340 2.6 21:16:18 10° NNW 21:20:07 87° W 21:22:26 23° S
Cosmos 1802 Rocket 4.0 21:19:19 10° S 21:25:44 82° E 21:32:12 10° N
Cosmos 2322 Rocket 2.6 21:25:05 17° SSE 21:28:52 38° ESE 21:34:02 10° NE
SPOT 5 3.0 21:27:02 30° SE 21:29:13 55° ENE 21:33:49 10° N
USA 186 4.3 21:27:27 10° SW 21:29:28 17° W 21:31:25 10° NW
Cosmos 1953 Rocket 3.5 21:25:43 10° N 21:30:12 89° W 21:32:54 24° S
Cosmos 2016 Rocket 3.9 21:24:11 10° S 21:30:17 75° E 21:36:31 10° NNE
Cosmos 2228 3.4 21:32:39 38° ESE 21:32:59 39° E 21:36:59 10° NNE
Envisat 3.0 21:29:51 20° SSE 21:33:23 86° WSW 21:38:30 10° NNW
H-2A R/B 1.9 21:32:10 38° SE 21:33:38 69° ENE 21:37:48 10° N
MetOp-A 4.2 21:33:27 31° SE 21:35:53 60° ENE 21:41:11 10° N
CZ-4 DEB 4.1 21:36:07 20° SSW 21:37:51 36° W 21:40:49 10° NNW
Nimbus 7 Rocket 4.4 21:33:58 10° NNE 21:40:00 61° ESE 21:45:05 15° S
Genesis I 4.5 21:38:17 10° NNW 21:41:45 28° NE 21:42:17 27° ENE
Cosmos 2173 Rocket 4.3 21:35:50 10° SSW 21:42:09 69° W 21:48:27 10° N
Terra 3.5 21:42:37 18° ENE 21:42:54 18° ENE 21:46:07 10° NNE
Meteor 2-9 Rocket 4.0 21:39:17 20° S 21:43:03 66° E 21:48:23 10° NNE
Meteor 1-15 Rocket 4.3 21:44:38 23° S 21:48:24 66° E 21:54:12 10° NNE
Cosmos 1758 Rocket 3.8 21:44:07 10° NNW 21:48:26 67° W 21:50:24 31° S
Cosmos 2360 4.2 21:43:00 10° SSW 21:48:44 86° WNW 21:54:31 10° NNE
Cosmos 405 Rocket 3.3 21:48:01 10° N 21:51:07 40° NE 21:51:07 40° NE
ERS-1 Rocket 3.9 21:48:48 14° SSW 21:52:51 45° W 21:57:40 10° NNW
Tiangong 1 3.8 21:53:08 10° SW 21:53:36 11° SW 21:53:36 11° SW
Cosmos 1864 Rocket 4.3 21:54:57 22° S 21:59:05 82° E 22:05:15 10° N
Cosmos 1939 Rocket 4.3 21:59:14 20° SSW 22:01:33 36° W 22:05:26 10° NNW
deb Chang Zheng 4 3.6 21:57:44 10° NNE 22:02:13 80° WNW 22:04:11 33° SSW
H-2A R/B 2.7 22:06:08 35° ENE 22:06:11 35° ENE 22:10:38 10° N
Cosmos 1763 Rocket 4.4 22:02:13 10° SW 22:07:07 48° WNW 22:12:03 10° NNE
Cosmos 2278 Rocket 4.4 22:06:54 10° NNE 22:09:16 12° NE 22:11:26 10° ENE
Meteor 2-17 Rocket 4.3 22:08:21 46° SSE 22:10:06 67° E 22:16:06 10° NNE
SL-08 RB Rocket 3.8 22:10:19 59° ENE 22:10:24 59° ENE 22:14:57 10° N
Tsikada Rocket 4.1 22:05:41 10° NNW 22:12:06 75° W 22:15:15 32° S
Cosmos 783 Rocket 4.4 22:11:46 62° SE 22:12:14 65° ESE 22:17:28 10° NNE
Cosmos 2058 Rocket 4.1 22:18:12 22° SW 22:20:45 46° WNW 22:25:07 10° N
ARGOS 3.0 22:20:35 63° SSE 22:21:30 89° ENE 22:26:56 10° NNW
Cosmos 1125 Rocket 4.2 22:18:09 10° NNW 22:23:10 48° WSW 22:24:35 38° SSW
SPOT 1/Viking Rocket 3.5 22:24:49 63° S 22:25:38 79° WSW 22:30:53 10° NNW
Cosmos 1844 Rocket 4.0 22:22:04 10° N 22:26:41 26° NE 22:27:15 25° ENE
USA 215 3.6 22:24:24 37° E 22:26:52 57° NNE 22:33:14 10° NW
NOAA 11 4.1 22:26:06 62° S 22:27:04 82° WSW 22:32:35 10° NNW
CZ-4C R/B 4.4 22:28:18 41° NE 22:28:18 41° NE 22:31:35 10° N
SL-16 R/B 2.2 22:23:21 20° SSW 22:27:27 81° WNW 22:33:09 10° NNE
ASTEX 1 4.3 22:24:06 10° N 22:28:54 47° WNW 22:31:24 26° SW
Cosmos 1725 Rocket 4.5 22:27:36 17° SSW 22:32:21 57° WNW 22:38:32 10° N
BREEZE-M DEB (TANK) 4.4 22:01:36 10° WNW 22:35:58 82° SSW 22:38:37 49° SE
Cosmos 540 Rocket 3.5 22:35:33 59° SW 22:36:28 75° WNW 22:41:38 10° NNE
BREEZE-M DEB (TANK) 3.7 22:17:56 10° WNW 22:36:34 76° SSW 22:37:50 59° SSE
Cosmos 1980 Rocket 4.1 22:33:19 10° WSW 22:38:15 30° NW 22:43:13 10° N
Cosmos 2360 Rocket 3.1 22:40:15 36° ENE 22:40:15 36° ENE 22:43:48 10° NE
YAOGAN 6 4.4 22:39:58 29° W 22:39:58 29° W 22:42:58 10° NNW
Cosmos 1707 4.2 22:38:59 10° N 22:41:19 34° N 22:41:19 34° N
Cosmos 1072 Rocket 4.4 22:52:48 68° ENE 22:52:48 68° ENE 22:58:40 10° NNE
Cosmos 2233 Rocket 4.3 22:51:25 42° SW 22:53:27 63° WNW 22:59:40 10° N
Cosmos 371 Rocket 3.8 22:58:58 56° NNW 22:58:58 56° NNW 23:03:09 10° NNE
Cosmos 2263 Rocket 2.7 22:54:34 10° NW 22:59:56 49° WSW 22:59:58 49° WSW
Cosmos 2322 Rocket 3.5 23:07:46 10° WSW 23:12:56 36° NW 23:18:08 10° NNE
CZ-4B R/B 4.4 23:13:36 10° N 23:17:59 42° WNW 23:17:59 42° WNW
Terra 2.9 23:21:30 43° NW 23:21:30 43° NW 23:24:55 10° NNW
Cosmos 2322 4.2 23:22:36 56° N 23:22:36 56° N 23:27:07 10° NNE
Cosmos 2034 Rocket 4.2 23:22:48 64° NNE 23:22:48 64° NNE 23:28:03 10° N
Cosmos 2333 Rocket 4.4 23:33:29 14° NE 23:33:29 14° NE 23:34:27 10° NE
Meteor 1-24 Rocket 4.3 23:28:08 10° NNW 23:33:34 55° WNW 23:33:34 55° WNW
ATLAS 3B R/B 4.3 23:39:39 23° ENE 23:39:39 23° ENE 23:42:40 10° NE
Cosmos 1464 Rocket 4.4 23:42:49 57° WNW 23:42:50 57° WNW 23:49:06 10° N
H-2A R/B 3.6 23:46:46 27° WNW 23:46:46 27° WNW 23:49:58 10° NW
COSMOS 2428 3.9 23:48:39 36° NNE 23:48:39 36° NNE 23:51:55 10° NNE
Nadezhda 4 Rocket 4.3 23:45:17 10° N 23:50:40 65° NNW 23:50:40 65° NNW
